Theta_e
322 325 331 335 338 338 338 339 341 338 337 336 336 337 337 338 338 337 336 334 334 334 333 333 327 321 317 316 316 317 318 318
317 318 319 322 327 331 332 334 335 337 338 335 334 333 333 334 335 335 335 335 333 331 333 331 326 322 317 316 316 317 317 317
315 314 314 315 317 319 322 325 331 332 335 337 334 333 333 332 331 332 332 332 331 330 333 331 328 323 318 317 317 317 317 316
314 313 313 313 313 315 315 318 324 330 332 335 335 333 331 331 330 331 330 330 330 329 329 330 329 324 321 318 317 317 317 316
313 312 311 311 312 312 313 313 315 319 329 331 334 333 332 331 333 332 330 329 328 328 327 327 327 325 323 320 318 318 317 317
311 310 310 309 310 311 312 311 311 313 315 321 326 328 329 330 331 332 332 330 327 326 326 326 326 323 322 320 318 318 318 317
308 307 307 307 307 308 310 310 310 311 312 314 316 320 323 324 326 328 328 328 328 324 323 323 323 322 320 320 318 318 319 317
306 305 305 305 305 306 307 307 308 309 311 312 313 314 316 318 320 323 324 324 323 323 321 320 321 320 319 319 318 317 318 319
305 305 305 304 304 305 305 305 305 305 308 309 311 313 313 314 315 317 319 321 322 321 321 319 318 317 317 316 315 315 316 316
304 304 304 304 304 303 304 305 306 306 306 307 309 311 312 313 314 315 316 317 319 319 318 317 316 315 314 313 312 312 312 313
304 304 304 303 303 303 304 304 305 305 306 308 308 309 311 311 312 313 313 314 315 315 313 312 313 311 310 310 309 308 307 309
304 304 303 303 303 304 304 304 305 306 306 307 308 309 310 311 311 312 312 311 310 309 310 309 309 309 308 307 307 306 306 306
304 304 304 304 304 304 304 305 305 306 306 307 307 308 309 310 309 309 308 307 307 307 306 306 306 306 306 305 306 306 305 305
304 305 305 304 304 305 305 306 307 306 307 307 307 309 309 308 307 306 305 305 304 303 303 302 302 303 303 303 303 303 304 303
304 304 305 304 304 305 306 307 308 308 308 307 307 308 306 304 303 301 301 301 301 301 299 299 299 299 299 299 299 298 298 298
304 304 305 304 305 305 306 307 308 309 307 306 305 302 301 300 299 298 298 298 297 297 297 297 296 296 296 296 295 295 294 294
304 303 303 303 304 305 306 307 307 307 306 304 301 300 299 298 297 296 295 295 295 295 295 294 294 294 295 294 293 294 294 294
302 302 302 302 303 305 306 307 306 305 302 301 300 299 298 296 295 294 294 294 294 294 293 292 292 292 292 292 291 291 292 291
302 302 302 302 302 303 306 307 304 302 301 300 300 299 297 295 294 293 292 292 292 293 292 292 292 291 291 291 291 290 289 288
Wind_Speed
12 14 13 10 7 3 2 4 6 12 13 15 19 22 18 18 19 21 21 20 26 29 24 22 21 21 20 20 20 19 18 17
12 15 16 17 16 13 9 4 3 7 10 13 14 15 20 24 23 21 22 21 21 26 33 24 22 23 23 24 23 22 20 20
11 14 15 16 16 15 14 11 9 3 7 9 9 6 11 15 19 25 26 26 25 28 33 31 26 25 25 25 26 24 23 25
10 12 13 13 14 14 14 13 12 12 5 4 7 12 13 12 15 20 23 25 28 30 32 31 28 29 30 31 31 30 27 28
8 9 10 10 10 10 11 12 13 13 11 3 5 9 11 11 13 15 17 20 22 25 33 33 35 31 30 33 34 35 32 30
8 7 7 9 10 11 12 12 12 12 11 8 8 11 14 14 15 15 16 16 21 24 28 35 37 35 35 34 35 36 36 31
6 5 5 8 9 11 11 12 11 12 12 11 9 10 12 13 16 17 16 15 15 18 25 29 36 38 34 36 36 36 36 35
4 5 6 7 9 9 9 10 12 12 12 12 12 13 13 15 15 16 16 16 17 16 19 24 33 38 38 37 37 38 42 37
3 4 6 8 9 9 11 13 14 14 13 13 14 13 14 15 15 16 18 19 18 18 19 21 27 29 37 40 39 40 40 42
2 3 5 7 8 9 9 10 12 13 14 15 16 16 15 15 16 15 17 18 19 18 21 24 25 28 33 39 38 38 35 36
1 3 5 8 9 10 10 12 15 17 16 15 15 16 16 15 14 15 16 17 17 18 19 21 27 29 32 37 35 36 37 36
4 6 8 8 9 11 13 15 17 20 19 17 17 17 16 14 13 13 13 14 16 18 20 24 28 31 33 35 35 36 39 36
6 8 10 12 14 16 18 20 22 21 19 19 18 16 16 14 12 11 12 13 15 18 20 22 25 26 29 33 32 34 37 36
6 6 8 11 13 16 19 20 21 20 20 20 17 16 13 12 9 9 10 11 12 13 16 19 21 25 27 28 28 31 31 31
6 7 7 12 14 17 18 20 20 21 22 18 15 12 8 6 6 7 7 8 9 9 10 12 15 17 17 20 17 14 17 19
7 9 9 14 17 19 19 20 19 20 15 11 8 5 4 3 3 4 5 5 5 7 8 8 3 3 7 11 15 16 13 20
5 8 9 13 16 19 19 20 20 15 9 4 6 5 3 2 2 1 2 3 4 1 2 2 4 5 4 6 10 11 11 16
5 8 10 14 17 18 19 19 16 9 4 6 6 6 5 3 2 1 1 1 2 3 3 2 6 8 4 1 2 7 10 12
5 7 12 16 18 21 18 14 11 5 5 6 7 6 5 5 5 4 3 4 4 5 7 4 3 3 3 7 10 14 18 16
Wind_Direction
44 42 45 56 71 71 354 293 249 243 238 236 235 234 233 235 239 230 235 229 230 235 222 220 213 208 207 204 202 201 199 189
64 58 57 61 63 65 64 63 287 258 230 214 227 234 240 242 237 238 234 234 227 229 232 220 214 214 210 202 198 197 196 190
79 65 59 56 57 55 54 49 36 1 231 230 224 226 240 246 254 256 249 248 242 238 236 219 216 213 211 205 198 197 199 189
91 77 65 56 48 42 43 40 41 36 56 206 217 233 246 248 250 251 252 249 250 242 234 224 219 211 209 205 202 198 194 195
98 85 70 59 45 37 34 31 29 29 20 354 245 260 268 268 265 258 250 241 241 241 242 232 223 214 213 208 205 202 201 200
107 82 65 48 26 17 13 14 15 14 13 7 334 307 300 305 298 288 269 255 248 246 243 237 226 218 216 210 205 205 206 206
109 79 42 26 11 359 352 351 349 351 350 342 329 310 297 289 288 291 281 274 262 250 249 243 236 228 223 218 210 209 208 210
84 48 23 2 352 342 339 337 332 328 325 318 313 307 299 291 286 282 282 276 261 254 249 245 241 236 230 222 217 212 210 213
70 22 357 346 334 324 321 319 315 314 308 302 297 294 293 290 287 284 279 277 277 272 262 251 250 244 235 226 218 215 212 210
61 346 337 325 325 325 316 305 302 301 297 293 289 290 289 287 288 290 289 285 280 273 267 258 250 245 239 229 220 218 212 207
316 320 329 330 328 321 312 306 306 306 295 287 284 278 277 281 285 290 292 287 283 280 272 268 264 255 242 233 221 217 211 207
310 329 337 326 319 321 318 314 313 311 304 294 280 271 267 272 279 286 291 291 284 278 277 271 263 255 247 232 223 218 213 207
339 341 340 338 335 329 324 318 311 303 298 288 272 263 265 267 276 291 299 302 297 295 290 273 260 249 240 229 223 217 209 203
330 332 328 323 322 319 314 307 305 297 295 284 267 253 253 270 291 310 314 311 309 309 304 292 274 257 246 239 233 220 208 201
315 312 313 312 312 308 309 308 307 300 298 282 267 264 261 280 309 318 319 324 320 325 319 304 287 267 251 235 224 215 193 174
315 316 322 316 312 314 312 313 311 306 292 267 258 238 258 275 304 320 333 334 340 341 319 306 285 214 196 172 157 150 131 126
325 323 327 330 322 313 315 315 315 305 273 221 195 209 210 212 239 327 340 353 18 58 52 62 94 101 171 157 141 122 139 134
338 335 342 330 330 320 310 318 313 291 214 191 189 193 185 155 103 98 63 151 159 151 156 210 134 133 153 280 213 153 150 145
326 328 328 338 327 323 311 315 315 266 200 206 201 188 180 160 153 144 168 163 166 151 152 162 152 137 121 117 120 132 123 118